TimeCDT,TemperatureF,Dew PointF,Humidity,Sea Level PressureIn,VisibilityMPH,Wind Direction,Wind SpeedMPH,Gust SpeedMPH,PrecipitationIn,Events,Conditions,WindDirDegrees,DateUTC
12:53 AM,39.9,25.0,55,30.19,10.0,West,11.5,-,N/A,,Clear,280,2011-10-19 05:53:00
1:53 AM,41.0,26.1,55,30.17,10.0,WNW,10.4,-,N/A,,Clear,290,2011-10-19 06:53:00
2:53 AM,41.0,26.1,55,30.17,10.0,West,12.7,-,N/A,,Clear,280,2011-10-19 07:53:00
3:53 AM,39.0,25.0,57,30.16,10.0,West,10.4,-,N/A,,Clear,270,2011-10-19 08:53:00
4:53 AM,39.9,26.1,58,30.16,10.0,West,13.8,-,N/A,,Clear,280,2011-10-19 09:53:00
6:53 AM,39.9,25.0,55,30.19,10.0,NNW,12.7,-,N/A,,Clear,330,2011-10-19 11:53:00
7:53 AM,39.0,25.0,57,30.22,10.0,NNW,11.5,-,N/A,,Clear,330,2011-10-19 12:53:00
8:53 AM,42.1,26.1,53,30.22,10.0,NNW,12.7,-,N/A,,Clear,330,2011-10-19 13:53:00
9:53 AM,48.9,25.0,39,30.23,10.0,North,11.5,-,N/A,,Clear,350,2011-10-19 14:53:00
12:53 PM,59.0,23.0,25,30.17,10.0,Variable,5.8,-,N/A,,Clear,0,2011-10-19 17:53:00
1:53 PM,60.1,23.0,24,30.12,10.0,Variable,3.5,16.1,N/A,,Clear,0,2011-10-19 18:53:00
2:53 PM,62.1,24.1,23,30.08,10.0,Variable,5.8,-,N/A,,Clear,0,2011-10-19 19:53:00
3:53 PM,62.1,24.1,23,30.05,10.0,NNW,9.2,16.1,N/A,,Clear,340,2011-10-19 20:53:00
4:53 PM,64.0,25.0,23,30.03,10.0,NW,8.1,-,N/A,,Clear,320,2011-10-19 21:53:00
5:53 PM,63.0,24.1,23,30.02,10.0,Calm,Calm,-,N/A,,Clear,0,2011-10-19 22:53:00
6:53 PM,57.9,25.0,28,30.02,10.0,Calm,Calm,-,N/A,,Clear,0,2011-10-19 23:53:00
7:53 PM,54.0,26.1,34,30.02,10.0,SE,3.5,-,N/A,,Clear,140,2011-10-20 00:53:00
8:53 PM,50.0,25.0,38,30.03,10.0,ESE,4.6,-,N/A,,Clear,120,2011-10-20 01:53:00
9:53 PM,46.9,24.1,41,30.02,10.0,South,3.5,-,N/A,,Clear,170,2011-10-20 02:53:00
10:53 PM,46.0,24.1,42,30.01,10.0,SSE,3.5,-,N/A,,Clear,150,2011-10-20 03:53:00
11:53 PM,44.1,24.1,45,30.01,10.0,Calm,Calm,-,N/A,,Clear,0,2011-10-20 04:53:00